Location: Kelshall
(52.0000°N, 0.0500°W)
Time: 21:07:18
(UTC+00:00)

ATLAS 2AS CENTAUR R/B - Pass Details

Date: 21 January 2021
Orbit: 947 x 1265 km, 63.7° (Epoch: 13 February)

Event Time Altitude Azimuth Distance (km) Brightness Sun altitude
Rises 19:16:18 0° 273° (W) 4,222 7.2 -25.3°
Reaches altitude 10° 19:19:26 10° 281° (WNW) 3,245 6.2 -25.8°
Maximum altitude 19:26:37 37° 347° (NNW) 1,824 3.9 -26.9°
Enters shadow 19:29:34 28° 28° (NNE) 2,108 4.0 -27.3°
